This is the latest recevied weather packets stored in our database for station/object SP2WPY-13. If no packets are shown the sender has not sent any weather packets the latest 10 day(s).
| Time | Temp. | Humidity | Pressure | Rain* | Wind** | Luminosity | Snow |
|---|---|---|---|---|---|---|---|
| 1777989364 | 11.67° C | 83% | 1013.2 hPa | - | - | - | - |
| 1777989089 | 11.67° C | 83% | 1013.4 hPa | - | - | - | - |
| 1777988770 | 11.67° C | 85% | 1013.4 hPa | - | - | - | - |
| 1777988497 | 11.67° C | 84% | 1013.5 hPa | - | - | - | - |
| 1777988177 | 11.67° C | 85% | 1013.5 hPa | - | - | - | - |
| 1777987904 | 11.67° C | 82% | 1013.6 hPa | - | - | - | - |
| 1777987583 | 12.22° C | 86% | 1013.7 hPa | - | - | - | - |
| 1777987263 | 11.67° C | 86% | 1013.7 hPa | - | - | - | - |
| 1777986990 | 11.67° C | 86% | 1013.7 hPa | - | - | - | - |
| 1777986670 | 11.67° C | 82% | 1013.8 hPa | - | - | - | - |
| 1777986396 | 11.67° C | 80% | 1013.8 hPa | - | - | - | - |
| 1777986077 | 11.67° C | 79% | 1013.9 hPa | - | - | - | - |
| 1777985803 | 11.67° C | 79% | 1013.9 hPa | - | - | - | - |
| 1777985483 | 12.22° C | 81% | 1013.9 hPa | - | - | - | - |
| 1777985163 | 12.22° C | 85% | 1014 hPa | - | - | - | - |
| 1777984889 | 12.22° C | 86% | 1014 hPa | - | - | - | - |
| 1777984570 | 11.67° C | 84% | 1014 hPa | - | - | - | - |
| 1777984296 | 11.67° C | 82% | 1014 hPa | - | - | - | - |
| 1777983976 | 11.67° C | 85% | 1014 hPa | - | - | - | - |
| 1777983702 | 11.67° C | 88% | 1013.9 hPa | - | - | - | - |
| 1777983382 | 11.11° C | 84% | 1013.9 hPa | - | - | - | - |
| 1777983063 | 11.11° C | 87% | 1013.8 hPa | - | - | - | - |
| 1777982789 | 11.11° C | 85% | 1013.8 hPa | - | - | - | - |
| 1777982469 | 11.11° C | 84% | 1013.7 hPa | - | - | - | - |
| 1777982194 | 11.11° C | 80% | 1013.6 hPa | - | - | - | - |
* Rain since midnight (hover to see other rain measurements)
** Current wind speed in m/s (hover to see current wind gust speed)